Home   Weather   Palma   Past weeks

Flag for Spain Past Weather in Palma, Majorca, Spain — Yesterday and Last 2 Weeks

Now
41 °F

Passing clouds.


Feels Like: 41 °F
Forecast: 53 / 67 °F
Wind: 1 mph from North

Location: Palma De Mallorca / Son San Juan

Current Time: Dec 3, 2016 at 3:37:21 am

Latest Report: Dec 3, 2016 at 3:00 am


Visibility: 6 mi

Pressure: 29.98 "Hg

Humidity: 100%

Dew Point: 41 °F

Location of PalmaLocation

Past Weather in Palma — Graph

°F

Palma Temperature Yesterday

Maximum temperature yesterday: 63 °F (at 12:30 pm)
Minimum temperature yesterday: 41 °F (at 4:30 am)
Average temperature yesterday: 50 °F

High & Low Weather Summary for the Past Weeks

 TemperatureHumidityPressure
High73 °F (Nov 22, 12:30 pm)100% (Nov 18, 2:00 am)30.45 "Hg (Nov 18, 2:00 am)
Low41 °F (Nov 25, 6:30 am)44% (Nov 23, 2:00 pm)29.56 "Hg (Nov 23, 2:00 pm)
Average57 °F83%29.94 "Hg
* Reported Nov 18 2:00 am — Dec 3 2:00 am, Palma, Weather by CustomWeather, © 2016

Note: Actual official high and low records may vary slightly from our data, if they occured in-between our weather recording intervals... More about our weather records

Advertising

Palma Weather History for the Previous 24 Hours

Scroll right to see more
 ConditionsComfort  
Time TempWeatherWind HumidityBarometerVisibility
2:00 am
Sat, Dec 3
43 °FPassing clouds.1 mph100%29.98 "Hg6 mi
1:30 am43 °FPassing clouds.No wind100%29.98 "Hg6 mi
1:00 am45 °FPassing clouds.No wind93%30.01 "Hg6 mi
12:30 am45 °FPassing clouds.1 mph93%30.01 "HgN/A
12:00 am45 °FPassing clouds.No wind100%30.01 "HgN/A
11:30 pm
Fri, Dec 2
45 °FPassing clouds.1 mph100%30.01 "HgN/A
11:00 pm45 °FPassing clouds.2 mph100%30.01 "HgN/A
10:30 pm46 °FPassing clouds.1 mph93%30.01 "HgN/A
10:00 pm48 °FPassing clouds.1 mph100%30.01 "HgN/A
9:30 pm48 °FPassing clouds.2 mph100%30.01 "HgN/A
9:00 pm48 °FPassing clouds.2 mph100%30.01 "HgN/A
8:30 pm48 °FPassing clouds.1 mph100%30.01 "HgN/A
8:00 pm50 °FPassing clouds.1 mph100%30.04 "HgN/A
7:30 pm52 °FPassing clouds.1 mph94%30.04 "HgN/A
7:00 pm54 °FPassing clouds.1 mph94%30.04 "HgN/A
6:30 pm54 °FPassing clouds.No wind94%30.01 "HgN/A
6:00 pm57 °FPassing clouds.1 mph82%30.01 "HgN/A
5:30 pm59 °FPassing clouds.3 mph77%30.01 "HgN/A
5:00 pm59 °FPassing clouds.5 mph82%30.04 "HgN/A
4:30 pm61 °FPassing clouds.5 mph77%30.04 "HgN/A
4:00 pm61 °FPassing clouds.3 mph83%30.04 "HgN/A
3:30 pm61 °FScattered clouds.6 mph83%30.04 "HgN/A
3:00 pm63 °FScattered clouds.6 mph77%30.04 "HgN/A
2:30 pm63 °FScattered clouds.5 mph77%30.07 "HgN/A
2:00 pm63 °FScattered clouds.5 mph77%30.07 "HgN/A
1:30 pm61 °FScattered clouds.5 mph77%30.07 "HgN/A
1:00 pm61 °FScattered clouds.3 mph77%30.09 "HgN/A
12:30 pm63 °FScattered clouds.1 mph73%30.09 "HgN/A
12:00 pm61 °FScattered clouds.No wind77%30.12 "HgN/A
11:00 am57 °FScattered clouds.No wind94%30.12 "HgN/A
10:30 am54 °FScattered clouds.No wind100%30.12 "HgN/A
10:00 am52 °FScattered clouds.1 mph100%30.12 "HgN/A
9:30 am50 °FScattered clouds.No wind100%30.12 "HgN/A
9:00 am46 °FScattered clouds.1 mph100%30.12 "HgN/A
8:30 am45 °FPassing clouds.1 mph100%30.12 "HgN/A
8:00 am43 °FPassing clouds.1 mph100%30.12 "HgN/A
7:30 am43 °FPassing clouds.No wind100%30.12 "HgN/A
7:00 am43 °FPassing clouds.2 mph100%30.12 "HgN/A
6:30 am43 °FPassing clouds.No wind93%30.12 "HgN/A
6:00 am43 °FPassing clouds.No wind93%30.15 "HgN/A
5:30 am43 °FPassing clouds.1 mph93%30.15 "HgN/A
5:00 am41 °FPassing clouds.2 mph100%30.15 "HgN/A
4:30 am41 °FPassing clouds.1 mph100%30.15 "HgN/A
4:00 am43 °FPassing clouds.1 mph100%30.18 "HgN/A
3:30 am45 °FPassing clouds.No wind93%30.18 "HgN/A
3:00 am45 °FPassing clouds.2 mph93%30.18 "HgN/A
Weather by CustomWeather, © 2016

See weather overviewHow to use our weather pages